map of LSE home
LSE - Airport
Location
City:  La Crosse, Wisconsin, United States
Name:La Crosse Regional
ICAO:KLSE
IATA:LSE
FAA LID:LSE

Details
Type:Airport (Part 139 Class I)
Use:Public/Civil
Latitude:4352'45"N (43.879278)
Longitude:9115'24"W (-91.256638)
Datum:WGS 1984
Elevation:655 ft (200 m)
Variation:1.30W (WMM2015v2 magnetic declination)
-0.04 annual change
Runways:3
Longest:8742 × 150 ft (2665 × 45.5 m), paved

Time
Time Zone:UTC-6 (DST-5)
Local Time:

Weather
METAR:KLSE 041353Z 28012KT 10SM BKN010 OVC013 04/04 A2959 RMK AO2 RAB28E41 CIG 007V011 SLP026 P0000 T00440039
TAF:KLSE 041412Z 0414/0512 28012KT P6SM OVC010
FM041700 30012G21KT P6SM OVC012
FM050200 32007KT P6SM OVC012

Related Locations
Nearby:
Farthest:YAUG: 10884 mi / 17516 km
Augusta [Augusta Airport], WA, AU

Find:

   beyond  
but within

Other Information
Maps:
Delays:
NOTAMs:
Links:
Sources:

  
  • flag of United States
  • flag of Wisconsin
  

Airport Diagram

Airport diagram for LSE

Airport diagram PDF from FAA

Sectional Chart

Flight Planning
at skyvector.com

Satellite Image

Google Maps Satellite view

 

Copyright © 2004-2019 Karl L. Swartz. All rights reserved.
The Great Circle Mapper name and logo are trademarks of the Great Circle Mapper.
All other trademarks mentioned herein belong to their respective owners.
Please see credits for attibutions and further copyright information.

  Follow gcmap on Facebook Follow gcmap on Twitter GCmap on LinkedIn

hCard Microformat

Geo Microformat